Location: Peebles
(55.6412°N, 3.1714°W)
Time: 15:40:32
(UTC+01:00)

Cosmos 2344 - Pass Details

Date: 26 September 2021
Orbit: 1235 x 3007 km, 63.3° (Epoch: 17 October)

Event Time Altitude Azimuth Distance (km) Brightness Sun altitude
Rises 22:11:29 0° 294° (WNW) 4,239 7.5 -25.8°
Reaches altitude 10° 22:14:07 10° 298° (WNW) 3,344 6.8 -26.1°
Maximum altitude 22:22:00 59° 18° (NNE) 1,734 4.3 -26.9°
Enters shadow 22:27:20 30° 86° (E) 2,773 5.0 -27.4°
